Buffalo, NY

3:26 AM EST on November 14, 2019 (GMT -0500)
Buffalo Niagara International

Weather History for KBUF - September, 2019

Change the Weather History Date:

Friday, September 13, 2019

  Actual Average Record
Temperature  
Mean Temperature 64 °F 63 °F  
Max Temperature 75 °F 72 °F 91 °F (1952)
Min Temperature 53 °F 55 °F 38 °F (1964)
Degree Days  
Heating Degree Days 1 4  
Month to date heating degree days 17 31  
Since 1 July heating degree days 20 58  
Cooling Degree Days 0 2  
Month to date cooling degree days 23 35  
Year to date cooling degree days 568 522  
Growing Degree Days 14 (Base 50)    
Moisture  
Dew Point 56 °F    
Average Humidity 77    
Maximum Humidity 89    
Minimum Humidity 64    
Precipitation  
Precipitation 0.04 in 0.12 in 1.85 in (1925)
Month to date precipitation 4.16 1.51  
Year to date precipitation 32.53 26.67  
Snow  
Snow 0.00 in 0.00 in 0.00 in ()
Month to date snowfall 0.0 0.0  
Since 1 July snowfall 0.0 0.0  
Since 1 September snowfall 0.0 0.0  
Snow Depth 0.00 in    
Sea Level Pressure  
Sea Level Pressure 30.19 in    
Wind  
Wind Speed 13 mph (SE)    
Max Wind Speed 25 mph    
Max Gust Speed 31 mph    
Visibility 10 miles    
Events Rain    
T = Trace of Precipitation, MM = Missing Value Source: NWS Daily Summary

Daily Weather History Graph

Daily Weather History Graph

Search for Another Location

Airport or City:

Astronomy

Sep. 13, 2019 Rise Set
Actual Time 6:52 AM EDT 7:28 PM EDT
Civil Twilight 6:23 AM EDT 7:57 PM EDT
Nautical Twilight 5:49 AM EDT 8:31 PM EDT
Astronomical Twilight 5:14 AM EDT 9:05 PM EDT
Moon 7:43 PM EDT (9/13) 6:04 AM EDT (9/13)
Length of Visible Light 13h 33m
Length of Day
12h 36m
Full, 100% of the Moon is Illuminated
Sep 13
Full
Sep 14
Full
Sep 21
Last Quarter
Sep 28
New
Oct 5
First Quarter

Hourly Weather History & Observations

Time (EDT) Temp. Dew Point Humidity Pressure Visibility Wind Dir Wind Speed Gust Speed Precip Events Conditions
12:54 AM 55.0 °F 48.0 °F 77% 30.32 in 10.0 mi East 6.9 mph - N/A   Partly Cloudy
1:54 AM 54.0 °F 48.0 °F 80% 30.32 in 10.0 mi ENE 9.2 mph - N/A   Scattered Clouds
2:54 AM 54.0 °F 48.0 °F 80% 30.28 in 10.0 mi ENE 8.1 mph - N/A   Scattered Clouds
3:54 AM 53.1 °F 48.0 °F 83% 30.28 in 10.0 mi ENE 6.9 mph - N/A   Scattered Clouds
4:54 AM 53.1 °F 48.9 °F 86% 30.27 in 10.0 mi ENE 8.1 mph - N/A   Clear
6:54 AM 55.9 °F 50.0 °F 80% 30.28 in 10.0 mi ENE 8.1 mph - N/A   Mostly Cloudy
7:54 AM 57.0 °F 51.1 °F 81% 30.27 in 10.0 mi ENE 8.1 mph - N/A   Mostly Cloudy
8:54 AM 61.0 °F 53.1 °F 75% 30.27 in 10.0 mi ENE 9.2 mph - N/A   Mostly Cloudy
9:54 AM 66.9 °F 57.0 °F 70% 30.25 in 10.0 mi SE 11.5 mph - N/A   Scattered Clouds
10:54 AM 69.1 °F 59.0 °F 70% 30.25 in 10.0 mi SSE 9.2 mph - N/A   Mostly Cloudy
11:54 AM 72.0 °F 61.0 °F 68% 30.22 in 10.0 mi SSE 10.4 mph - N/A   Overcast
12:54 PM 72.0 °F 61.0 °F 68% 30.21 in 10.0 mi SE 12.7 mph - N/A   Mostly Cloudy
1:54 PM 73.0 °F 62.1 °F 68% 30.20 in 10.0 mi South 13.8 mph - N/A   Mostly Cloudy
2:09 PM 75.0 °F 62.1 °F 64% 30.20 in 10.0 mi SSE 13.8 mph - N/A   Mostly Cloudy
2:54 PM 73.0 °F 61.0 °F 66% 30.18 in 10.0 mi South 13.8 mph - N/A   Mostly Cloudy
3:54 PM 73.0 °F 61.0 °F 66% 30.16 in 10.0 mi SE 18.4 mph 23.0 mph N/A   Mostly Cloudy
4:54 PM 70.0 °F 59.0 °F 68% 30.13 in 10.0 mi SSE 19.6 mph 26.5 mph N/A   Mostly Cloudy
5:54 PM 70.0 °F 59.0 °F 68% 30.12 in 10.0 mi SSE 12.7 mph - N/A   Mostly Cloudy
6:54 PM 68.0 °F 57.9 °F 70% 30.11 in 10.0 mi SSE 15.0 mph - N/A   Mostly Cloudy
7:54 PM 66.0 °F 57.0 °F 73% 30.09 in 10.0 mi SSE 16.1 mph - N/A   Scattered Clouds
8:54 PM 64.9 °F 57.0 °F 75% 30.05 in 10.0 mi South 20.7 mph 27.6 mph N/A   Scattered Clouds
9:54 PM 64.9 °F 57.0 °F 75% 30.06 in 10.0 mi South 17.3 mph 25.3 mph N/A   Overcast
10:54 PM 66.0 °F 57.0 °F 73% 30.04 in 10.0 mi South 21.9 mph 31.1 mph N/A   Overcast
11:54 PM 64.9 °F 59.0 °F 81% 30.05 in 10.0 mi South 20.7 mph 25.3 mph 0.00 in Rain Light Rain